Location: *
(41.0833°N, 73.4167°W)
Time: 06:40:09
(UTC+00:00)

Cosmos 1707 - Pass Details

Date: 22 October 2019
Orbit: 515 x 531 km, 82.5° (Epoch: 12 November)

Event Time Altitude Azimuth Distance (km) Brightness Sun altitude
Exits shadow 09:31:08 21° 340° (NNW) 1,247 4.4 -19.8°
Drops below altitude 10° 09:32:38 10° 352° (N) 1,789 5.4 -19.5°
Sets 09:34:54 0° 0° (N) 2,682 6.4 -19.1°
